Preview of NWS' New Version of Forecast
This preview is not operational and should not be used for support decisions.
Latest weather observations around

San Jose, San Jose International Airport (KSJC)

Using English Units (Switch to International System of Units)
Date/ Time (PDT) Wind (mph) Vis. (mi) Weather Sky Cond. Temp (°F) Rel. Humidity Wind Chill (°F) Heat Index (°F) Pressure Precip. (in)
Air Dwpt 6 hour Altimeter (inHg) Sea level (inHg) 1 hr 3 hr 6 hr
Max Min
Sep 22 23:53 NNW 5 10 Mostly Clear FEW001 63 57     81%     29.94 29.93      
Sep 22 22:53 N 5 10 Mostly Clear FEW001 FEW010 65 57     76%     29.95 29.94      
Sep 22 22:39 Calm 10 Mostly Clear FEW001 FEW010 64 57     78%     29.95        
Sep 22 21:53 N 3 10 Mostly Clear FEW010 FEW040 65 58     78%     29.95 29.95      
Sep 22 20:53 NNE 5 10 Mostly Clear FEW040 66 58     75%     29.93 29.93      
Sep 22 19:53 N 10 10 Partly Cloudy FEW050 SCT065 SCT100 66 58     75%     29.93 29.92      
Sep 22 18:53 N 11 10 Mostly Cloudy FEW050 SCT065 BKN100 69 59     70%     29.91 29.91      
Sep 22 17:53 N 14 10 Partly Cloudy SCT065 SCT090 SCT120 74 58     57%   74 29.9 29.89      
Sep 22 16:53 NNW 13 10 Partly Cloudy FEW065 SCT090 SCT120 78 56     47%   78 29.88 29.88      
Sep 22 15:53 NW 11 10 Partly Cloudy FEW065 SCT090 SCT120 79 60     52%   79 29.88 29.88      
Sep 22 14:53 NW 14 10 Mostly Cloudy FEW065 SCT090 BKN120 80 58     47%   80 29.89 29.89      
Sep 22 13:53 NW 17 10 Mostly Cloudy FEW065 SCT090 BKN120 76 59     56%   76 29.9 29.9      
Sep 22 12:53 NW 5 10 Mostly Cloudy FEW065 SCT090 BKN120 81 56     42%   81 29.89 29.89      
Sep 22 11:53 NW 3 10 Mostly Cloudy FEW060 SCT090 BKN150 79 50     36%   78 29.91 29.91      
Sep 22 10:53 SSE 3 10 Partly Cloudy FEW060 SCT120 75 49     40%   74 29.92 29.92      
Sep 22 09:53 Calm 10 Partly Cloudy FEW060 SCT120 71 51     49%   70 29.94 29.93      
Sep 22 08:53 Calm 10 Mostly Clear FEW055 66 50     56%     29.94 29.93      
Sep 22 07:53 Calm 10 Mostly Clear FEW050 62 51     67%     29.93 29.93      
Sep 22 06:53 Calm 10 Mostly Clear FEW050 59 49     69%     29.92 29.92      
Sep 22 05:53 Calm 10 Mostly Clear FEW010 59 49     69%     29.91 29.91      
Sep 22 04:53 Calm 10 Clear CLR 62 50     65%     29.9 29.9      
Sep 22 03:53 Calm 10 Clear CLR 62 49     62%     29.89 29.89      
Sep 22 02:53 ESE 3 10 Clear CLR 63 50     63%     29.9 29.89      
Sep 22 01:53 SSE 3 10 Clear CLR 62 51     67%     29.9 29.9      
Sep 22 00:53 SE 3 10 Clear CLR 66 52     61%     29.91 29.91      
Sep 21 23:53 SSE 3 10 Clear CLR 67 53     61%     29.92 29.91      
Sep 21 22:53 SSW 3 10 Clear CLR 69 53     57%     29.92 29.91      
Sep 21 21:53 WSW 5 10 Clear CLR 71 51     49%   70 29.92 29.92      
Sep 21 20:53 N 7 10 Clear CLR 73 49     43%   72 29.91 29.91      
Sep 21 19:53 N 10 10 Clear CLR 74 50     43%   73 29.9 29.89      
Sep 21 18:53   10 Clear CLR 76 51     42%   75 29.88 29.88      
Sep 21 17:53   10 Clear CLR 81 52     37%   80 29.87 29.87      
Sep 21 16:53 NNW 15 10 Clear CLR 86 48     27%   83 29.85 29.85      
Sep 21 15:53 NW 11 10 Clear CLR 86 48     27%   83 29.86 29.86      
Sep 21 14:53 WNW 14 10 Mostly Clear FEW075 86 49     28%   83 29.88 29.87      
Sep 21 13:53 6 10 Mostly Cloudy FEW016 BKN075 86 48     27%   83 29.9 29.89      
Sep 21 12:53 6 10 Mostly Cloudy FEW016 BKN075 84 48     29%   82 29.92 29.92      
Sep 21 11:53 3 10 Mostly Clear FEW016 81 48     32%   80 29.94 29.93      
Sep 21 10:53 Calm 10 Clear CLR 77 50     39%   76 29.96 29.96      
Sep 21 09:53 Calm 10 Clear CLR 71 50     47%   70 29.97 29.96      
Sep 21 08:53 Calm 10 Clear CLR 66 49     54%     29.97 29.97      
Sep 21 07:53 S 3 10 Clear CLR 61 50     67%     29.96 29.96      
Sep 21 06:53 Calm 10 Clear CLR 59 50     72%     29.95 29.95      
Sep 21 05:53 Calm 10 Mostly Clear FEW006 60 49     67%     29.95 29.94      
Sep 21 05:32 S 3 10 Mostly Clear FEW005 60 49     67%     29.94        
Sep 21 04:53 Calm 10 Clear CLR 61 50     67%     29.94 29.93      
Sep 21 03:53 Calm 10 Clear CLR 61 50     67%     29.93 29.93      
Sep 21 02:53 SSE 3 10 Clear CLR 60 50     69%     29.94 29.93      
Sep 21 01:53 SE 5 10 Clear CLR 61 51     70%     29.94 29.93      
Sep 21 00:53 SE 5 10 Clear CLR 63 53     70%     29.93 29.93      
Sep 20 23:53 ESE 3 10 Clear CLR 66 53     63%     29.93 29.93      
Sep 20 22:53 Calm 10 Clear CLR 68 54     61%     29.93 29.92      
Sep 20 21:53 NW 6 10 Mostly Clear FEW070 68 52     57%     29.93 29.92      
Sep 20 20:53 N 11 10 Mostly Clear FEW070 71 52     51%   70 29.92 29.92      
Sep 20 19:53 N 11 10 Mostly Clear FEW080 72 51     48%   71 29.91 29.9      
Sep 20 18:53 NNW 14 10 Mostly Clear FEW080 76 49     39%   75 29.89 29.88      
Sep 20 17:53 NNW 15 10 Mostly Clear FEW080 79 50     36%   78 29.88 29.88      
Sep 20 16:53 NNW 13 10 Clear   82 46     28%   80 29.88 29.88      
Sep 20 15:53 NNW 14 10 Mostly Clear FEW032 83 47     28%   81 29.89 29.89      
Sep 20 14:53 NNW 13 10 Clear   83 48     30%   81 29.91 29.91      
Sep 20 13:53 NW 8 10 Mostly Clear FEW080 82 46     28%   80 29.92 29.92      
Sep 20 12:53 NNW 8 10 Mostly Clear FEW080 81 48     32%   80 29.95 29.94      
Sep 20 11:53 5 10 Mostly Clear FEW080 77 50     39%   76 29.96 29.96      
Sep 20 10:53 5 10 Mostly Clear FEW080 74 51     45%   73 29.97 29.97      
Sep 20 09:53 Calm 10 Clear CLR 69 52     54%     29.97 29.97      
Sep 20 08:53 Calm 10 Clear CLR 63 51     65%     29.97 29.97      
Sep 20 07:53 SSE 3 10 Clear CLR 58 51     78%     29.96 29.96      
Sep 20 06:53 S 3 10 Clear CLR 56 50     80%     29.96 29.95      
Sep 20 05:53 SE 3 10 Clear CLR 56 50     80%     29.94 29.94      
Sep 20 04:53 SE 3 10 Clear CLR 57 51     81%     29.93 29.93      
Sep 20 03:53 Calm 10 Clear CLR 59 53     81%     29.93 29.92      
Sep 20 02:53 Calm 10 Clear CLR 60 52     75%     29.93 29.93      
Sep 20 01:53 Calm 10 Clear CLR 60 52     75%     29.94 29.93      
Sep 20 00:53 ESE 3 10 Clear CLR 61 51     70%     29.93 29.93      
Sep 19 23:53 SW 6 10 Clear CLR 63 51     65%     29.93 29.92      
Sep 19 22:53 NW 7 10 Clear CLR 64 50     60%     29.93 29.92      
Sep 19 21:53 NW 8 10 Clear CLR 64 52     65%     29.92 29.92      
May 15 09:53 Calm 10 Cloudy FEW021 BKN028 OVC035 60 47     62%     30.05 30.05      
May 14 23:53 WNW 11 10 Mostly Cloudy FEW010 SCT024 BKN045 56 49     77%     30.01 30.01      
May 14 15:53 WNW 13 10 Mostly Clear FEW025 FEW032 67 51     57%     29.96 29.96      
May 14 08:53 Calm 10 Cloudy FEW012 BKN019 OVC024 59 49     69%     30 30      
May 13 19:31 NW 14 10 Mostly Clear FEW008 63 50     63%     29.97        
May 13 02:53 SE 11 10 Clear CLR 56 49     77%     29.95 29.95      
May 12 00:53 E 3 10 Clear CLR 63 49     60%     29.81 29.8      
Jun 11 20:53 WSW 13 10 Clear   58 45     62%     29.98 29.98      
Jun 10 18:53   10 Partly Cloudy FEW025 SCT037 SCT065 66 45     47%     29.93 29.93      
Jun 10 12:53   10 Partly Cloudy FEW015 SCT032 SCT050 69 47     45%     29.98 29.97      
Notice The following observation data may not be complete
Jun 10 03:34   10 Mostly Cloudy BKN023          %              
Jun 09 00:53 NW 5 10 Clear   64 61     90%     29.96 29.96      
Jun 08 16:53 ESE 8 10 Cloudy FEW009 BKN038 OVC075 70 58     66%     29.99 29.98     0
Jun 07 14:53   10 Mostly Cloudy FEW050 SCT090 BKN130 71 53     53%   70 29.92 29.91      
Jun 07 06:53 Calm 7 Mostly Cloudy FEW001 SCT007 BKN010 58 52     81%     29.93 29.92      
Jun 06 04:53 NW 5 9 Clear CLR 55 52     89%     29.93 29.92      
Jun 06 03:53 NNW 6 9 Clear CLR 56 52     87%     29.92 29.92      
Jun 05 20:53 W 9 10 Partly Cloudy FEW002 FEW065 SCT110 65 53     65%     29.89 29.88      
Jun 05 12:53 NW 10 10 Mostly Clear FEW035 FEW090 79 51     38%   78 29.89 29.88